Location: Newark
(48.4472°N, 1.4892°E)
Time: 22:20:43
(UTC+00:00)

deb Explorer IX - Pass Details

Date: 21 November 2019
Orbit: 546 x 1104 km, 38.8° (Epoch: 12 December)

Event Time Altitude Azimuth Distance (km) Brightness Sun altitude
Exits shadow 03:25:22 11° 134° (SE) 2,166 ? -36.8°
Drops below altitude 10° 03:25:28 10° 134° (SE) 2,195 ? -36.8°
Sets 03:27:59 0° 122° (ESE) 3,030 ? -36.4°
